Date String (YYYY-MM-DD hh:mm:ss) UTC,Instrument flags,Ambient pressure (hPa),Sample flow (lpm),Bypass flow (lpm),Sample temperature (°C),Ambient temperature (°C),ASC tube jacket temperature (°C),LED temperature (°C),Box temperature (°C),Sample RH (%),Span deviation,Mass concentration (μg/m³),Mass concentration (μg/m³),Mass concentration (μg/m³)
DateTimeUTC,F1_M11,P_M11,Q1_M11,Q2_M11,T1_M11,T2_M11,T3_M11,T4_M11,T5_M11,U1_M11,ZSPAN_M11,X2_M11,X0_M11,X1_M11
2022-07-13 23:00:00,,0827.7,5.00,0.00,29.4,28.1,00.0,38.0,31.3,19.0,0000.0,0005.51,0014.58,0004.77
2022-07-13 23:01:00,,0827.7,4.99,0.00,29.4,27.9,00.0,38.0,31.3,19.0,0000.0,0005.49,0016.06,0004.76
2022-07-13 23:02:00,,0827.7,5.00,0.00,29.3,27.2,00.0,37.9,31.2,19.6,0000.0,0005.47,0016.73,0004.74
2022-07-13 23:03:00,,0827.7,5.00,0.00,29.3,27.1,00.0,37.9,31.1,18.6,0000.0,0005.46,0017.23,0004.73
2022-07-13 23:04:00,,0827.7,5.01,0.00,29.3,27.2,00.0,37.9,31.0,18.7,0000.0,0005.45,0016.85,0004.71
2022-07-13 23:05:00,,0827.7,4.99,0.00,29.2,27.3,00.0,37.9,31.0,20.0,0000.0,0005.45,0016.17,0004.72
2022-07-13 23:06:00,,0827.7,5.00,0.00,29.2,27.5,00.0,37.9,31.1,20.4,0000.0,0005.50,0015.00,0004.72
2022-07-13 23:07:00,,0827.7,4.99,0.00,29.3,27.7,00.0,37.9,31.1,20.1,0000.0,0005.58,0014.77,0004.73
2022-07-13 23:08:00,,0827.7,5.01,0.00,29.3,28.0,00.0,37.9,31.2,19.9,0000.0,0005.59,0015.14,0004.73
2022-07-13 23:09:00,,0827.7,5.00,0.00,29.3,28.1,00.0,38.0,31.3,20.6,0000.0,0005.59,0015.38,0004.71
2022-07-13 23:10:00,,0827.7,4.99,0.00,29.4,28.0,00.0,37.9,31.3,19.3,0000.0,0005.64,0015.91,0004.70
2022-07-13 23:11:00,,0827.7,5.00,0.00,29.3,27.3,00.0,37.9,31.2,19.0,0000.0,0005.70,0017.37,0004.70
2022-07-13 23:12:00,,0827.8,5.01,0.00,29.3,27.1,00.0,37.9,31.1,19.5,0000.0,0005.73,0017.29,0004.70
2022-07-13 23:13:00,,0827.7,4.99,0.00,29.3,27.2,00.0,37.9,31.0,19.6,0000.0,0005.81,0018.14,0004.70
2022-07-13 23:14:00,,0827.8,5.01,0.00,29.2,27.3,00.0,37.9,31.0,19.1,0000.0,0005.87,0019.59,0004.71
2022-07-13 23:15:00,,0827.8,5.01,0.00,29.2,27.5,00.0,37.9,31.1,19.6,0000.0,0005.91,0020.51,0004.70
2022-07-13 23:16:00,,0827.8,5.00,0.00,29.3,27.7,00.0,37.9,31.2,19.9,0000.0,0005.92,0021.49,0004.70
2022-07-13 23:17:00,,0827.9,5.00,0.00,29.3,27.9,00.0,37.9,31.2,19.5,0000.0,0005.90,0021.51,0004.70
2022-07-13 23:18:00,,0827.9,5.00,0.00,29.3,28.1,00.0,38.0,31.3,19.0,0000.0,0005.87,0021.34,0004.71
2022-07-13 23:19:00,,0827.9,5.00,0.00,29.4,28.0,00.0,38.0,31.3,19.4,0000.0,0005.85,0020.88,0004.71
2022-07-13 23:20:00,,0827.8,5.00,0.00,29.3,27.3,00.0,37.9,31.2,19.9,0000.0,0005.90,0020.93,0004.72
2022-07-13 23:21:00,,0827.9,5.00,0.00,29.3,27.0,00.0,37.9,31.1,19.9,0000.0,0005.93,0020.77,0004.73
2022-07-13 23:22:00,,0827.9,5.00,0.00,29.3,27.1,00.0,37.9,31.1,20.3,0000.0,0005.95,0020.03,0004.72
2022-07-13 23:23:00,,0828.0,4.99,0.00,29.2,27.3,00.0,37.9,31.0,20.5,0000.0,0005.99,0019.09,0004.73
2022-07-13 23:24:00,,0828.1,5.01,0.00,29.2,27.5,00.0,37.9,31.0,20.7,0000.0,0005.97,0018.16,0004.73
2022-07-13 23:25:00,,0828.1,5.00,0.00,29.3,27.7,00.0,37.9,31.1,19.2,0000.0,0006.02,0018.02,0004.72
2022-07-13 23:26:00,,0828.2,5.00,0.00,29.3,27.9,00.0,38.0,31.2,20.0,0000.0,0006.03,0017.74,0004.72
2022-07-13 23:27:00,,0828.2,5.02,0.00,29.3,28.1,00.0,38.0,31.3,20.7,0000.0,0006.04,0017.09,0004.72
2022-07-13 23:28:00,,0828.2,5.00,0.00,29.4,28.2,00.0,38.0,31.3,21.8,0000.0,0006.02,0016.82,0004.71
2022-07-13 23:29:00,,0828.2,4.99,0.00,29.4,27.8,00.0,38.0,31.3,21.6,0000.0,0006.00,0017.17,0004.70
2022-07-13 23:30:00,,0828.2,5.00,0.00,29.3,27.2,00.0,37.9,31.2,20.6,0000.0,0005.98,0016.90,0004.70
2022-07-13 23:31:00,,0828.2,5.00,0.00,29.3,27.1,00.0,37.9,31.1,20.7,0000.0,0005.95,0016.50,0004.70
2022-07-13 23:32:00,,0828.3,5.00,0.00,29.3,27.2,00.0,37.9,31.0,20.9,0000.0,0005.91,0015.91,0004.69
2022-07-13 23:33:00,,0828.3,5.01,0.00,29.3,27.4,00.0,37.9,31.1,21.1,0000.0,0005.80,0015.07,0004.68
2022-07-13 23:34:00,,0828.4,5.01,0.00,29.3,27.6,00.0,37.9,31.1,21.3,0000.0,0005.76,0015.22,0004.67
2022-07-13 23:35:00,,0828.4,4.99,0.00,29.3,27.8,00.0,38.0,31.2,21.7,0000.0,0005.74,0014.98,0004.66
2022-07-13 23:36:00,,0828.3,5.01,0.00,29.3,28.0,00.0,38.0,31.3,21.9,0000.0,0005.64,0013.99,0004.65
2022-07-13 23:37:00,,0828.2,5.00,0.00,29.4,28.0,00.0,38.0,31.3,22.0,0000.0,0005.60,0013.45,0004.64
2022-07-13 23:38:00,,0828.2,5.00,0.00,29.3,27.3,00.0,37.9,31.2,22.2,0000.0,0005.56,0013.29,0004.62
2022-07-13 23:39:00,,0828.1,5.00,0.00,29.3,27.0,00.0,37.9,31.1,22.1,0000.0,0005.52,0013.75,0004.60
2022-07-13 23:40:00,,0828.2,5.00,0.00,29.3,27.0,00.0,37.9,31.0,21.7,0000.0,0005.48,0013.23,0004.58
2022-07-13 23:41:00,,0828.2,5.00,0.00,29.2,27.2,00.0,37.9,31.0,22.0,0000.0,0005.44,0013.45,0004.54
2022-07-13 23:42:00,,0828.3,4.99,0.00,29.2,27.4,00.0,37.9,31.0,21.9,0000.0,0005.36,0015.35,0004.50
2022-07-13 23:43:00,,0828.3,5.01,0.00,29.3,27.6,00.0,37.9,31.1,21.6,0000.0,0005.30,0015.70,0004.47
2022-07-13 23:44:00,,0828.3,4.99,0.00,29.3,27.9,00.0,38.0,31.2,21.8,0000.0,0005.30,0016.02,0004.44
2022-07-13 23:45:00,,0828.3,5.00,0.00,29.3,28.1,00.0,38.0,31.3,22.2,0000.0,0005.27,0015.78,0004.43
2022-07-13 23:46:00,,0828.3,5.01,0.00,29.4,28.2,00.0,38.0,31.3,22.3,0000.0,0005.21,0015.25,0004.40
2022-07-13 23:47:00,,0828.2,5.00,0.00,29.4,27.8,00.0,38.0,31.3,22.1,0000.0,0005.16,0014.76,0004.37
2022-07-13 23:48:00,,0828.3,5.00,0.00,29.3,27.2,00.0,37.9,31.2,22.1,0000.0,0005.11,0013.79,0004.35
2022-07-13 23:49:00,,0828.3,5.00,0.00,29.3,27.1,00.0,37.9,31.1,22.0,0000.0,0005.07,0013.51,0004.34
2022-07-13 23:50:00,,0828.2,5.00,0.00,29.3,27.2,00.0,37.9,31.0,21.6,0000.0,0005.05,0012.94,0004.33
2022-07-13 23:51:00,,0828.2,5.00,0.00,29.2,27.3,00.0,37.9,31.0,21.4,0000.0,0005.04,0012.51,0004.32
2022-07-13 23:52:00,,0828.2,5.01,0.00,29.3,27.5,00.0,37.9,31.1,21.6,0000.0,0005.03,0012.45,0004.32
2022-07-13 23:53:00,,0828.3,5.01,0.00,29.3,27.8,00.0,37.9,31.2,21.7,0000.0,0005.07,0010.80,0004.32
2022-07-13 23:54:00,,0828.3,5.00,0.00,29.3,28.0,00.0,38.0,31.2,21.9,0000.0,0005.08,0010.23,0004.32
2022-07-13 23:55:00,,0828.3,5.00,0.00,29.4,28.2,00.0,38.0,31.3,22.0,0000.0,0005.10,0010.54,0004.31
2022-07-13 23:56:00,,0828.3,4.99,0.00,29.4,28.3,00.0,38.0,31.4,21.6,0000.0,0005.05,0009.89,0004.29
2022-07-13 23:57:00,,0828.4,5.01,0.00,29.4,28.0,00.0,38.0,31.4,21.2,0000.0,0005.01,0009.82,0004.29
2022-07-13 23:58:00,,0828.5,5.00,0.00,29.4,27.4,00.0,38.0,31.2,21.0,0000.0,0005.01,0009.79,0004.29
2022-07-13 23:59:00,,0828.4,4.99,0.00,29.3,27.2,00.0,38.0,31.2,20.6,0000.0,0005.04,0009.88,0004.28
